When you browse on this site, cookies collect data to enhance your experience and personalize the content and advertising you see.
Visit our Privacy Policy to learn more. By continuing to use the site, you agree to this use of cookies and data.
  • In Hungary
  • List of Countries
  • For 7 days
  • Water Temperature
  • Weather Map
  • News
  • Weather Widgets
  • user-avatar
    Login

    Hourly Weather Saray

    Today, 9 December, Monday

    Time Temperature Precipitation Wind Pressure Humidity
    00:00 +7°C° 0.7 mm 5 mps 756 mmHg 86%
    01:00 +7°C° 0.9 mm 5 mps 756 mmHg 87%
    02:00 +7°C° 0.9 mm 5 mps 756 mmHg 88%
    03:00 +7°C° 0 mm 5 mps 755 mmHg 91%
    04:00 +7°C° 0.9 mm 6 mps 756 mmHg 90%
    05:00 +6°C° 0.9 mm 7 mps 756 mmHg 89%
    06:00 +6°C° 0.9 mm 7 mps 756 mmHg 88%
    07:00 +6°C° 0.7 mm 8 mps 757 mmHg 84%
    08:00 +6°C° 0.7 mm 8 mps 757 mmHg 80%
    09:00 +6°C° 0.7 mm 9 mps 758 mmHg 76%
    10:00 +6°C° 0.1 mm 9 mps 758 mmHg 74%
    11:00 +6°C° 0.1 mm 9 mps 758 mmHg 71%
    12:00 +6°C° 0.1 mm 9 mps 758 mmHg 69%
    13:00 +6°C° 0.1 mm 9 mps 758 mmHg 69%
    14:00 +6°C° 0.1 mm 8 mps 758 mmHg 70%
    15:00 +6°C° 0.1 mm 8 mps 758 mmHg 70%
    16:00 +6°C° 0 mm 8 mps 759 mmHg 71%
    17:00 +6°C° 0 mm 7 mps 759 mmHg 72%
    18:00 +6°C° 0 mm 7 mps 759 mmHg 73%
    19:00 +6°C° 0 mm 7 mps 759 mmHg 74%
    20:00 +6°C° 0 mm 7 mps 760 mmHg 75%
    21:00 +7°C° 0 mm 6 mps 760 mmHg 77%
    22:00 +7°C° 0 mm 6 mps 760 mmHg 76%
    23:00 +7°C° 0 mm 5 mps 760 mmHg 75%

    Tomorrow, 10 December, Tuesday

    Time Temperature Precipitation Wind Pressure Humidity
    00:00 +7°C° 0 mm 5 mps 760 mmHg 74%
    01:00 +7°C° 0 mm 4 mps 760 mmHg 74%
    02:00 +7°C° 0 mm 4 mps 760 mmHg 74%
    03:00 +8°C° 0 mm 3 mps 760 mmHg 74%
    04:00 +8°C° 0 mm 3 mps 760 mmHg 74%
    05:00 +8°C° 0 mm 3 mps 760 mmHg 75%
    06:00 +8°C° 0 mm 2 mps 761 mmHg 75%
    07:00 +8°C° 0 mm 2 mps 761 mmHg 74%
    08:00 +8°C° 0 mm 2 mps 761 mmHg 73%
    09:00 +10°C° 0 mm 1 mps 762 mmHg 72%
    10:00 +10°C° 0 mm 1 mps 761 mmHg 71%
    11:00 +10°C° 0 mm 1 mps 761 mmHg 70%
    12:00 +11°C° 0 mm 1 mps 761 mmHg 69%
    13:00 +11°C° 0 mm 1 mps 761 mmHg 70%
    14:00 +11°C° 0 mm 1 mps 760 mmHg 70%
    15:00 +11°C° 0 mm 1 mps 760 mmHg 71%
    16:00 +10°C° 0 mm 1 mps 760 mmHg 73%
    17:00 +10°C° 0 mm 1 mps 760 mmHg 74%
    18:00 +10°C° 0 mm 1 mps 760 mmHg 76%
    19:00 +10°C° 0 mm 1 mps 760 mmHg 77%
    20:00 +10°C° 0 mm 1 mps 760 mmHg 79%
    21:00 +10°C° 0 mm 1 mps 760 mmHg 81%
    22:00 +10°C° 0.2 mm 1 mps 760 mmHg 82%
    23:00 +8°C° 0.2 mm 2 mps 760 mmHg 84%

    Day after tomorrow, 11 December, Wednesday

    Time Temperature Precipitation Wind Pressure Humidity
    00:00 +8°C° 0.2 mm 2 mps 760 mmHg 86%
    01:00 +8°C° 0.3 mm 2 mps 760 mmHg 86%
    02:00 +8°C° 0.3 mm 2 mps 760 mmHg 87%
    03:00 +8°C° 0.3 mm 2 mps 760 mmHg 88%
    04:00 +8°C° 0.2 mm 2 mps 760 mmHg 88%
    05:00 +8°C° 0.2 mm 3 mps 759 mmHg 89%
    06:00 +8°C° 0.2 mm 3 mps 759 mmHg 89%
    07:00 +8°C° 0.1 mm 3 mps 760 mmHg 87%
    08:00 +7°C° 0.1 mm 4 mps 760 mmHg 85%
    09:00 +7°C° 0.1 mm 4 mps 760 mmHg 83%
    10:00 +7°C° 0 mm 4 mps 760 mmHg 80%
    11:00 +8°C° 0 mm 4 mps 759 mmHg 78%
    12:00 +8°C° 0 mm 4 mps 759 mmHg 75%
    13:00 +8°C° 0 mm 4 mps 759 mmHg 75%
    14:00 +8°C° 0 mm 4 mps 759 mmHg 74%
    15:00 +8°C° 0 mm 4 mps 759 mmHg 74%
    16:00 +8°C° 0 mm 4 mps 759 mmHg 74%
    17:00 +8°C° 0 mm 3 mps 759 mmHg 75%
    18:00 +8°C° 0 mm 3 mps 760 mmHg 76%
    19:00 +8°C° 0 mm 3 mps 760 mmHg 77%
    20:00 +8°C° 0 mm 3 mps 760 mmHg 77%
    21:00 +8°C° 0 mm 2 mps 760 mmHg 78%
    22:00 +7°C° 0 mm 2 mps 760 mmHg 79%
    23:00 +7°C° 0 mm 2 mps 760 mmHg 80%

    12 December, Thursday

    Time Temperature Precipitation Wind Pressure Humidity
    00:00 +8°C° 0 mm 1 mps 760 mmHg 80%
    01:00 +8°C° 0 mm 1 mps 760 mmHg 81%
    02:00 +8°C° 0 mm 1 mps 760 mmHg 81%
    03:00 +8°C° 0 mm 1 mps 760 mmHg 81%
    04:00 +7°C° 0 mm 0 mps 760 mmHg 80%
    05:00 +7°C° 0 mm 0 mps 760 mmHg 79%
    06:00 +7°C° 0 mm 0 mps 760 mmHg 78%
    07:00 +7°C° 0 mm 0 mps 760 mmHg 76%
    08:00 +9°C° 0 mm 1 mps 760 mmHg 74%
    09:00 +9°C° 0 mm 1 mps 760 mmHg 72%
    10:00 +9°C° 0 mm 1 mps 760 mmHg 69%
    11:00 +9°C° 0 mm 2 mps 759 mmHg 67%
    12:00 +10°C° 0 mm 3 mps 759 mmHg 64%
    13:00 +10°C° 0 mm 3 mps 759 mmHg 65%
    14:00 +10°C° 0 mm 3 mps 758 mmHg 65%
    15:00 +10°C° 0 mm 4 mps 758 mmHg 66%
    16:00 +10°C° 0 mm 3 mps 758 mmHg 68%
    17:00 +9°C° 0 mm 3 mps 758 mmHg 71%
    18:00 +9°C° 0 mm 2 mps 758 mmHg 73%
    19:00 +9°C° 0 mm 2 mps 758 mmHg 75%
    20:00 +8°C° 0 mm 2 mps 758 mmHg 77%
    21:00 +8°C° 0 mm 2 mps 758 mmHg 79%
    22:00 +8°C° 0 mm 2 mps 758 mmHg 79%
    23:00 +8°C° 0 mm 3 mps 758 mmHg 80%

    13 December, Friday

    Time Temperature Precipitation Wind Pressure Humidity
    00:00 +8°C° 0 mm 3 mps 757 mmHg 81%
    01:00 +8°C° 0.1 mm 3 mps 757 mmHg 82%
    02:00 +7°C° 0.1 mm 4 mps 757 mmHg 82%
    03:00 +7°C° 0.1 mm 4 mps 756 mmHg 83%
    04:00 +7°C° 0 mm 4 mps 757 mmHg 84%
    05:00 +6°C° 0 mm 4 mps 757 mmHg 84%
    06:00 +6°C° 0 mm 4 mps 757 mmHg 84%
    07:00 +6°C° 0 mm 5 mps 757 mmHg 82%
    08:00 +6°C° 0 mm 5 mps 757 mmHg 80%
    09:00 +6°C° 0 mm 5 mps 757 mmHg 78%
    10:00 +7°C° 0 mm 4 mps 757 mmHg 75%
    11:00 +7°C° 0 mm 4 mps 757 mmHg 72%
    12:00 +8°C° 0 mm 3 mps 757 mmHg 69%
    13:00 +8°C° 0 mm 3 mps 757 mmHg 69%
    14:00 +8°C° 0 mm 3 mps 757 mmHg 68%
    15:00 +8°C° 0 mm 3 mps 757 mmHg 68%
    16:00 +8°C° 0 mm 3 mps 757 mmHg 68%
    17:00 +8°C° 0 mm 3 mps 757 mmHg 69%
    18:00 +7°C° 0 mm 2 mps 757 mmHg 69%
    19:00 +7°C° 0 mm 2 mps 757 mmHg 71%
    20:00 +7°C° 0 mm 2 mps 757 mmHg 72%
    21:00 +7°C° 0 mm 2 mps 758 mmHg 74%
    22:00 +7°C° 0 mm 2 mps 758 mmHg 75%
    23:00 +7°C° 0 mm 2 mps 757 mmHg 75%

    14 December, Saturday

    Time Temperature Precipitation Wind Pressure Humidity
    00:00 +7°C° 0 mm 2 mps 757 mmHg 76%
    01:00 +7°C° 0 mm 2 mps 757 mmHg 76%
    02:00 +7°C° 0 mm 2 mps 757 mmHg 76%
    03:00 +8°C° 0 mm 1 mps 757 mmHg 76%
    04:00 +7°C° 0 mm 2 mps 757 mmHg 76%
    05:00 +7°C° 0 mm 2 mps 757 mmHg 77%
    06:00 +7°C° 0 mm 2 mps 757 mmHg 78%
    07:00 +7°C° 0 mm 2 mps 758 mmHg 78%
    08:00 +7°C° 0 mm 2 mps 758 mmHg 78%
    09:00 +8°C° 0 mm 2 mps 758 mmHg 77%
    10:00 +8°C° 0 mm 2 mps 758 mmHg 77%
    11:00 +8°C° 0 mm 2 mps 758 mmHg 78%
    12:00 +8°C° 0 mm 2 mps 758 mmHg 78%
    13:00 +8°C° 0 mm 3 mps 758 mmHg 78%
    14:00 +8°C° 0 mm 3 mps 757 mmHg 78%
    15:00 +7°C° 0 mm 4 mps 757 mmHg 78%
    16:00 +7°C° 0 mm 4 mps 757 mmHg 80%
    17:00 +7°C° 0 mm 4 mps 757 mmHg 81%
    18:00 +7°C° 0 mm 4 mps 758 mmHg 83%
    19:00 +7°C° 0 mm 4 mps 758 mmHg 84%
    20:00 +7°C° 0 mm 4 mps 758 mmHg 85%
    21:00 +6°C° 0 mm 4 mps 758 mmHg 85%
    22:00 +6°C° 0.1 mm 4 mps 758 mmHg 85%
    23:00 +6°C° 0.1 mm 4 mps 758 mmHg 85%
    Show more